Dewpoint
70 71 69 69 69 69 69 67 57 60 58 55 55 57 57 61 61 61 61 63 60 64 65 63 60 60 60 58 59 61 62 58 62 52 52 65 70 71 71 71 72 72 72 73 74 74 74 73 75 76 76 76 75 76 75 75 75 75 75 75 75 75 76 75 75 75 74 75 75 75 75 75 75 75 75 75 75 74 75 75 74 74 74 75 75 75 74 74 75 75 75 75 76 75 75 75 75
70 70 69 69 68 69 64 65 58 57 57 56 57 58 59 60 61 59 60 62 62 64 65 62 62 64 64 64 61 60 61 65 65 64 66 68 69 70 71 72 72 72 72 73 74 74 74 75 76 76 75 75 75 76 75 75 75 76 76 76 76 76 76 76 76 76 75 75 75 75 75 75 75 74 73 74 75 74 74 75 75 75 75 75 75 74 74 74 74 74 75 75 74 75 75 75 75
69 68 67 69 68 68 64 64 56 56 53 52 55 58 61 59 59 61 63 64 65 65 64 63 64 65 63 63 61 62 59 65 64 65 66 69 68 70 71 72 72 72 73 73 73 74 74 75 76 76 75 75 75 76 76 76 76 76 76 76 76 76 76 76 76 76 75 75 75 75 75 74 73 73 73 73 73 73 73 73 74 73 73 74 74 74 74 74 74 74 74 74 74 74 74 74 75
69 68 67 68 64 66 62 61 58 56 53 53 55 59 60 60 60 62 64 65 65 63 63 63 62 65 64 61 62 63 63 63 64 65 66 67 68 69 71 72 73 72 73 73 73 74 75 76 76 76 75 76 76 76 76 76 76 76 76 76 76 76 76 75 76 75 75 75 74 73 73 73 72 71 73 72 74 74 73 73 72 73 73 73 74 74 74 74 74 74 74 74 74 74 74 74 74
68 68 68 67 65 61 61 59 58 58 53 55 54 59 60 61 62 63 64 65 64 63 63 64 62 66 66 63 64 61 62 65 65 65 65 67 69 70 71 72 72 72 72 73 73 73 75 76 76 76 76 76 76 76 76 76 76 76 76 76 76 75 75 75 75 75 75 74 73 73 73 73 73 73 73 72 73 73 74 73 72 72 72 73 74 74 74 74 74 74 74 74 74 74 74 73 73
68 68 69 68 64 67 63 58 57 57 58 60 57 59 61 62 63 63 63 65 65 64 64 64 62 62 62 64 65 63 64 61 65 66 66 68 69 70 71 72 72 71 72 74 74 74 75 76 76 76 76 76 76 76 76 76 75 75 75 75 75 74 75 75 75 75 74 73 73 72 73 72 73 73 73 73 74 73 73 72 73 73 72 74 74 74 74 74 74 74 74 74 75 74 74 74 74
66 67 68 68 67 67 57 56 55 57 59 61 60 61 62 63 64 64 63 63 65 64 65 62 63 62 61 64 65 66 68 66 66 66 67 69 70 71 71 71 71 72 72 73 74 74 74 76 76 76 76 76 76 76 76 75 75 75 75 74 75 75 75 75 75 75 73 74 73 73 73 74 73 73 73 74 74 74 73 73 73 73 73 73 73 74 74 74 74 74 74 74 74 74 73 73 74
69 68 65 62 60 61 58 58 57 58 60 63 63 62 64 64 64 63 62 61 61 61 63 63 64 63 62 63 62 68 68 67 67 69 69 70 70 71 70 71 70 71 72 73 75 74 76 76 76 76 76 76 76 76 75 75 75 75 75 75 75 75 75 75 75 74 73 73 72 72 73 73 73 74 74 74 74 74 74 74 73 73 73 73 74 74 74 74 75 75 74 74 74 73 74 73 74
68 67 67 63 59 60 57 56 57 60 61 63 63 65 65 64 64 63 63 63 62 64 63 62 61 60 62 63 63 67 68 69 69 70 69 70 70 70 70 70 70 70 71 72 73 74 75 77 76 76 75 76 76 75 75 75 75 75 74 74 74 75 75 75 75 75 73 73 73 74 73 73 74 74 74 74 74 74 74 74 73 73 73 73 73 74 74 74 75 74 74 74 74 74 74 74 74
66 66 62 61 59 55 55 56 56 60 61 63 64 64 65 65 64 64 63 63 63 62 63 63 62 62 63 62 64 66 68 69 69 69 69 70 70 70 70 70 70 70 71 72 73 73 75 77 76 76 76 76 76 75 75 75 74 74 75 74 74 75 74 75 74 74 74 74 74 74 74 74 74 74 74 74 74 74 74 74 74 74 73 74 74 74 73 74 74 74 74 74 74 74 74 73 74
63 65 64 60 56 55 55 54 57 60 62 64 65 65 66 65 64 64 64 63 63 62 62 62 61 62 62 63 66 69 69 69 68 67 69 70 70 70 69 71 71 71 71 72 73 73 74 75 76 76 76 75 75 75 75 75 74 75 75 74 74 74 74 74 74 74 74 75 74 75 75 74 74 74 74 74 74 74 74 74 74 74 74 74 73 73 73 74 75 74 74 74 74 74 74 74 74
63 63 63 57 56 56 55 56 57 60 63 63 63 65 65 65 64 63 63 62 62 61 61 62 61 62 61 62 64 68 68 68 67 68 69 70 69 69 70 70 71 71 71 72 73 73 74 75 76 76 75 75 75 75 75 75 74 74 74 75 74 75 74 74 74 75 75 75 75 75 75 75 74 74 74 74 74 74 74 74 74 74 73 73 73 73 74 74 75 75 74 74 74 74 74 74 74
62 64 61 57 56 57 57 56 58 60 60 62 62 67 66 64 63 64 64 64 63 62 61 64 63 62 59 62 67 67 66 67 68 68 69 69 69 69 70 70 71 71 72 73 73 73 74 74 74 75 75 75 76 76 75 75 75 74 74 74 74 74 74 74 74 75 75 75 74 74 75 74 74 74 74 74 74 74 74 74 74 74 73 73 73 73 74 75 74 74 74 75 74 74 74 74 74
62 64 61 56 58 57 56 56 58 57 59 61 65 67 66 64 64 65 64 63 62 62 62 63 63 63 62 63 66 65 66 68 68 68 68 69 69 69 69 70 71 71 72 72 73 73 73 74 74 76 75 76 76 76 75 74 74 74 74 74 75 74 75 75 74 74 75 74 75 74 75 75 74 74 74 74 74 74 75 74 74 74 73 73 73 74 74 74 75 75 75 74 74 74 74 74 74
63 66 63 58 56 56 57 55 55 56 57 62 64 65 65 66 65 64 64 62 62 64 63 64 63 61 60 60 61 63 66 67 67 68 69 69 70 69 70 70 70 71 71 72 72 72 73 74 74 75 76 75 76 76 77 75 74 74 74 74 74 75 75 75 75 74 74 74 74 74 74 75 74 74 74 74 74 74 74 74 73 74 73 73 73 74 74 74 74 74 74 74 74 74 75 75 75
65 65 63 57 54 55 55 55 57 56 57 63 64 66 66 66 65 65 66 68 63 63 62 61 63 61 62 60 62 65 67 67 68 68 69 69 69 69 69 70 70 71 72 72 72 73 73 74 74 75 76 75 75 75 77 76 75 75 74 75 75 75 75 75 75 75 75 75 74 74 73 75 74 74 75 74 74 75 74 74 74 74 73 74 72 73 75 74 74 74 74 74 75 75 75 75 74
65 65 60 57 53 55 54 55 55 52 60 63 65 65 62 64 67 67 70 67 62 61 62 61 61 62 62 62 64 67 67 68 68 68 68 69 69 68 69 70 70 71 71 72 72 73 73 74 74 74 75 75 75 75 76 76 75 75 75 75 75 75 75 75 75 75 75 75 74 74 74 75 76 76 75 74 75 75 74 74 74 74 74 74 74 73 74 75 74 74 75 75 75 74 75 75 74
65 60 58 55 55 54 55 56 55 58 61 62 64 65 64 62 64 66 67 65 65 64 64 63 64 64 64 65 66 67 67 67 67 67 67 67 67 67 67 68 68 68 70 71 73 73 73 74 74 75 75 75 75 76 75 75 76 75 77 77 76 76 75 75 76 76 75 76 75 75 75 75 75 76 75 74 75 75 74 74 74 74 74 73 74 74 74 74 74 74 74 74 74 75 74 75 75
62 59 58 55 55 55 57 57 58 59 60 63 64 66 64 63 64 66 63 63 63 63 62 63 63 64 65 66 66 66 67 67 67 66 65 65 65 65 66 68 68 69 70 71 72 73 74 74 75 74 74 76 76 75 74 76 75 76 76 76 76 75 76 77 77 77 77 77 76 75 75 74 74 75 75 74 75 75 74 74 73 73 74 73 74 74 74 74 74 75 74 74 74 73 75 75 74
62 59 55 57 57 58 57 57 60 60 64 65 64 64 64 64 63 65 63 62 63 62 59 61 61 62 64 65 65 66 66 66 67 66 65 65 65 65 66 66 67 69 69 70 72 72 74 73 75 75 75 75 75 75 74 75 75 75 76 76 76 76 76 77 77 77 76 76 76 75 74 74 74 75 73 73 74 75 74 74 74 73 73 74 75 75 74 75 75 75 74 73 73 73 74 73 73
60 59 56 56 58 56 56 58 60 63 65 64 65 65 62 64 63 63 63 60 61 62 60 61 61 62 63 64 64 66 65 65 66 65 65 65 65 65 66 66 66 68 69 70 72 73 73 73 74 75 75 75 75 75 75 75 75 75 75 75 76 76 76 76 75 76 76 76 75 74 74 74 74 74 74 74 74 75 75 75 75 75 75 75 75 76 75 74 74 73 72 72 73 73 73 73 74
56 58 59 59 59 55 56 54 60 62 64 66 65 63 63 64 65 63 61 59 59 61 61 62 62 62 63 63 64 65 65 65 65 65 65 65 65 65 66 67 67 68 70 70 71 72 73 73 73 74 74 75 75 75 74 75 76 75 75 76 76 76 76 76 75 76 76 75 74 73 74 74 75 75 75 75 75 75 76 75 74 75 75 75 74 74 73 74 73 72 73 73 73 73 72 73 73
54 54 54 55 54 54 55 54 61 62 63 63 64 64 65 64 62 62 61 62 62 63 61 62 63 63 63 63 63 64 64 64 65 65 65 65 65 66 66 66 66 67 69 69 71 72 72 73 73 74 73 75 75 75 75 75 74 74 75 75 75 75 75 75 75 75 76 75 74 74 72 73 74 74 75 75 75 75 75 75 74 73 73 73 73 72 73 73 72 72 72 74 74 72 72 73 73
55 53 54 54 54 53 53 52 61 61 62 64 64 65 65 63 61 62 61 61 62 62 62 63 64 64 64 63 63 64 64 64 65 65 65 65 65 65 66 66 67 69 69 69 70 71 73 71 73 74 74 74 74 75 74 74 74 73 74 75 75 74 74 74 74 75 76 75 75 75 74 73 74 74 75 75 75 75 75 75 74 72 72 72 73 73 71 71 72 73 73 74 74 74 71 72 71
53 53 53 53 52 51 50 51 55 60 61 64 64 64 64 63 63 62 61 61 62 62 62 63 63 64 64 64 64 64 64 65 65 65 66 66 66 66 67 67 68 68 68 69 69 70 71 72 72 73 73 74 74 73 73 74 74 74 74 73 74 75 74 74 75 76 75 76 76 76 75 73 74 74 73 74 74 75 74 73 72 72 73 73 73 72 73 72 72 72 73 74 75 74 73 73 72
51 51 50 49 46 44 43 46 51 60 62 63 63 62 63 64 63 61 62 62 62 62 62 63 63 63 63 64 64 64 64 64 65 65 65 66 66 66 67 67 67 67 68 69 69 70 70 71 71 71 73 73 73 72 73 74 74 73 74 74 74 75 74 74 75 74 75 75 76 76 76 75 74 74 73 74 73 73 73 73 73 72 73 73 72 72 74 72 71 72 73 75 74 74 73 73 72
45 43 42 41 40 39 38 37 50 60 61 62 61 61 62 62 61 59 62 62 62 62 62 62 62 62 62 63 64 64 64 64 65 65 66 66 66 66 66 66 66 67 68 69 69 70 71 71 71 72 73 74 73 72 73 74 74 73 74 74 74 75 74 75 74 74 75 75 75 77 77 77 74 74 73 73 74 73 74 74 73 73 73 72 73 73 74 73 73 72 74 74 75 74 73 73 72
40 41 40 39 38 36 35 37 52 60 60 62 60 61 62 61 61 59 62 62 62 61 61 62 62 62 62 63 64 65 65 65 65 65 65 65 65 66 66 66 66 67 67 68 69 71 70 70 70 71 72 73 73 72 74 73 74 73 74 74 73 75 75 74 73 73 74 76 76 75 76 75 75 74 74 74 74 74 74 73 74 73 73 73 74 73 73 74 74 75 75 76 76 75 74 74 73
40 41 38 37 35 35 45 44 55 57 59 61 60 59 59 60 58 60 62 62 61 61 61 61 61 61 62 63 64 64 65 65 65 66 65 66 66 66 66 66 66 66 68 68 69 70 70 70 70 72 72 73 73 72 72 72 73 73 74 73 74 73 74 74 74 74 75 76 77 76 75 75 76 75 75 74 74 74 74 74 73 74 74 74 74 75 74 75 75 74 75 75 75 74 73 73 73
41 38 35 37 36 36 45 58 57 56 60 61 58 50 52 58 59 60 62 61 61 61 61 61 61 61 62 62 63 64 64 65 66 66 66 66 66 65 65 66 66 66 69 70 69 69 70 70 70 71 71 72 72 71 73 72 73 73 73 73 74 74 74 73 74 75 76 76 76 77 76 75 75 75 75 75 74 74 74 74 73 73 74 75 75 75 74 74 74 74 74 74 74 74 72 72 71
39 35 34 34 34 33 43 57 58 55 61 60 57 50 49 55 59 61 62 61 61 60 60 60 61 61 61 62 62 63 64 65 65 65 66 66 66 65 65 66 67 68 70 70 69 69 70 70 70 70 71 72 72 72 72 73 73 72 73 73 74 74 74 73 73 74 75 75 76 76 77 76 76 76 75 75 74 74 73 73 73 73 75 75 74 75 74 74 74 74 74 74 74 73 72 73 72
33 38 38 29 31 31 36 58 57 54 59 59 56 51 50 52 58 61 62 61 60 60 60 60 60 60 61 61 62 62 63 64 65 65 65 66 65 65 65 66 67 67 69 69 69 70 70 70 71 70 71 71 73 72 73 73 73 74 74 74 74 74 73 73 73 74 74 75 75 76 76 76 76 76 75 75 74 74 73 74 73 74 74 75 75 75 75 73 74 74 75 74 73 71 72 71 72
34 35 32 31 28 28 25 51 58 57 58 59 55 50 50 52 57 60 61 60 60 60 60 60 61 60 61 61 61 62 62 63 64 64 65 65 65 65 65 66 67 68 68 68 69 70 70 70 72 71 71 72 73 73 73 74 74 74 74 72 71 74 73 73 74 74 74 74 75 75 76 76 76 75 75 75 75 73 73 73 73 74 74 75 75 75 74 74 74 72 75 76 74 73 71 69 70
35 33 33 28 28 27 27 37 56 57 57 56 57 54 51 53 58 60 61 60 60 60 60 60 61 61 61 61 61 61 62 62 63 64 64 65 65 65 65 67 67 68 68 69 70 69 70 71 72 72 72 72 73 73 73 73 74 75 74 73 74 73 74 73 73 74 74 73 74 74 75 76 76 75 75 75 75 74 73 73 73 74 74 75 75 75 74 74 75 74 75 75 75 74 72 70 70
35 34 34 30 31 30 27 31 45 55 56 55 56 55 54 55 58 60 60 60 60 60 60 60 61 61 61 61 61 61 62 62 62 64 64 64 64 65 64 66 66 67 68 68 70 71 71 72 72 73 73 73 73 74 75 75 75 75 73 73 73 74 74 74 73 73 73 74 73 73 75 75 75 76 75 75 75 74 73 73 74 74 74 75 75 73 73 74 74 73 74 75 75 74 73 72 71
34 33 33 33 30 30 29 32 32 42 52 53 54 53 53 54 57 59 60 60 60 60 60 60 60 61 61 61 60 60 61 61 62 63 64 64 64 64 64 65 65 67 67 68 71 71 72 72 73 74 74 72 73 74 74 73 73 72 71 72 72 73 74 74 74 73 74 74 73 73 74 75 75 75 75 75 75 74 73 73 73 73 74 75 74 72 73 72 73 74 74 72 74 74 73 73 72
36 35 35 34 33 32 33 33 32 33 45 48 49 52 52 52 55 58 60 60 60 59 59 59 60 60 60 60 60 60 61 61 62 62 63 63 63 64 64 64 65 66 68 69 70 70 72 72 73 73 74 74 74 73 73 73 72 72 72 71 70 72 74 74 73 73 73 73 74 74 74 74 75 75 75 74 74 73 73 74 73 74 74 74 73 72 73 72 74 74 74 75 73 73 71 71 71
36 36 35 34 34 31 33 32 33 30 41 37 49 50 51 52 54 56 59 59 59 59 59 59 59 60 60 60 60 60 60 61 61 62 62 63 63 63 64 64 66 66 68 69 69 70 72 72 72 72 74 74 73 74 74 73 73 72 71 71 71 71 72 72 72 73 72 72 75 74 73 74 75 74 74 74 74 74 74 73 73 73 73 73 74 73 73 74 74 74 73 73 74 72 71 69 70
35 36 35 33 33 33 32 29 27 28 32 28 26 27 31 37 45 55 58 59 59 59 59 59 60 60 60 60 60 60 60 60 60 60 61 61 62 62 63 64 64 65 66 67 69 70 72 72 73 74 73 73 73 74 74 74 74 74 72 72 71 71 73 73 71 73 73 72 74 74 73 74 74 74 74 74 74 73 73 73 73 73 73 73 73 73 73 73 74 73 73 72 71 73 72 73 73
37 36 35 32 33 30 26 27 30 32 31 29 32 26 26 28 31 47 57 58 59 60 60 60 60 60 59 59 60 60 59 59 59 60 59 60 61 62 62 63 64 64 66 67 68 69 70 72 73 74 74 74 74 74 75 75 74 75 74 74 73 72 72 74 74 74 74 73 73 73 74 74 73 73 73 73 73 73 74 73 73 73 74 74 74 73 73 72 75 74 73 73 72 69 67 67 70
38 37 35 34 33 33 32 30 32 32 26 24 26 25 26 40 36 35 48 56 58 59 60 60 60 60 60 60 60 60 60 59 59 59 59 59 60 61 62 63 63 64 65 66 67 68 69 71 73 73 74 74 74 75 75 75 75 74 74 74 74 74 74 73 73 72 73 74 73 73 73 74 75 74 74 75 75 75 74 74 73 74 74 74 74 74 73 73 75 74 74 74 73 69 65 65 69
37 37 36 35 35 34 32 33 31 26 24 25 25 25 27 45 47 40 47 54 57 59 60 60 61 60 60 59 59 60 60 60 60 59 59 59 60 61 62 63 62 63 65 66 67 68 69 71 72 73 74 74 74 74 75 75 74 73 73 72 72 71 71 72 71 71 71 72 70 72 74 74 74 75 75 75 74 75 75 75 74 73 74 74 74 74 74 74 75 74 74 73 72 74 72 68 67
36 35 37 37 36 35 34 33 30 27 25 24 21 24 25 29 26 40 52 53 56 58 59 59 61 61 60 60 59 59 59 60 60 59 59 58 59 60 61 62 62 62 64 65 66 68 69 71 72 73 73 74 74 74 75 74 74 73 73 72 71 71 71 72 74 72 72 73 73 74 75 75 75 74 74 75 75 76 76 76 75 74 74 75 75 75 74 74 73 73 74 74 73 75 74 70 67
34 35 34 35 35 34 33 33 31 30 27 25 21 21 23 23 28 51 54 53 55 58 58 59 59 61 60 60 59 60 59 59 60 60 59 59 60 60 60 61 61 61 63 64 65 67 70 71 72 73 73 73 74 74 74 74 73 73 73 73 72 72 70 72 73 74 74 75 74 74 75 75 76 75 75 76 75 76 76 76 75 75 75 75 75 75 74 74 74 75 76 76 77 76 74 72 69
32 32 34 34 34 34 33 30 29 25 23 26 21 28 25 26 42 54 55 54 54 56 57 59 60 60 61 61 60 60 59 60 60 60 59 59 60 60 60 61 61 61 62 63 65 67 69 71 72 73 73 73 74 74 74 74 74 73 73 72 72 72 72 72 73 73 74 75 75 75 76 75 76 76 76 76 76 76 76 76 76 75 75 75 75 75 75 75 76 75 76 76 76 76 75 73 73
32 31 30 30 29 29 29 28 27 26 25 25 25 20 22 30 44 46 48 47 46 48 50 55 58 60 60 60 60 60 60 61 60 60 60 60 60 60 60 60 60 60 61 64 65 66 68 70 71 72 72 73 73 74 74 74 73 74 73 73 72 72 72 73 72 73 74 75 75 76 76 76 75 76 76 76 77 76 77 77 76 76 75 75 75 76 76 76 77 77 76 76 76 75 76 75 72
30 31 29 28 27 28 29 27 28 26 25 27 24 20 18 21 43 46 47 47 49 50 51 52 55 58 59 61 61 61 60 60 60 61 61 61 61 61 60 60 61 61 62 63 63 65 66 68 70 71 72 72 73 73 74 73 73 73 73 73 72 72 72 73 72 73 74 75 75 75 76 76 76 75 75 76 76 76 76 77 75 75 76 76 77 77 77 75 75 75 76 77 77 75 74 74 73
29 26 24 23 26 28 29 27 29 26 24 27 25 19 17 18 40 46 50 50 51 51 51 52 52 53 57 60 61 60 61 61 60 60 61 62 62 62 61 61 62 62 62 63 63 64 66 68 69 71 72 72 73 73 73 73 72 73 73 73 72 73 73 71 72 72 73 74 74 75 76 76 76 76 76 76 76 74 76 76 76 76 76 77 76 77 78 76 75 75 76 76 76 76 76 75 73
28 25 24 20 25 25 23 25 23 23 22 22 19 16 24 41 45 47 49 50 51 52 52 52 53 54 56 57 59 60 60 60 61 62 62 61 62 62 61 62 64 65 64 64 63 63 65 68 69 70 71 72 72 72 73 73 73 73 72 72 72 73 73 72 72 72 73 74 74 75 76 75 75 75 75 75 75 75 76 76 76 76 77 77 78 77 77 78 78 76 77 76 75 76 75 74 73
22 20 25 25 23 22 23 24 27 24 22 21 17 20 25 41 43 48 48 49 51 52 53 54 54 55 56 58 59 58 59 60 61 61 61 62 63 62 63 63 64 64 64 63 63 64 65 66 69 69 71 71 72 72 72 73 73 73 73 73 72 73 73 72 72 71 72 73 74 74 74 73 75 74 75 75 75 75 75 76 76 76 77 78 79 79 78 78 79 77 76 76 74 75 76 75 73
18 20 21 22 25 21 22 22 20 18 20 19 19 16 29 36 40 47 48 49 51 52 53 55 56 55 56 56 59 58 58 59 60 60 60 61 62 63 63 64 64 64 63 62 63 65 67 67 69 70 71 71 72 72 72 72 72 73 73 73 72 73 71 71 72 72 73 73 73 73 75 73 74 75 75 76 77 77 77 77 77 76 76 77 78 79 78 78 79 78 77 76 75 75 76 75 73
17 15 22 22 23 27 20 23 20 21 18 18 20 22 32 37 42 48 49 48 50 52 52 54 55 55 55 55 56 57 58 58 58 59 60 61 62 63 63 63 64 63 64 63 64 66 66 67 69 69 70 70 71 72 72 72 72 72 73 73 72 73 73 72 73 73 74 73 74 74 75 75 75 75 77 77 77 77 77 77 77 77 78 78 78 79 79 77 78 78 77 77 77 74 76 76 75
18 19 20 20 20 21 30 29 25 21 22 22 32 30 32 39 38 45 48 47 48 50 51 52 54 55 56 55 55 56 57 58 60 59 59 61 61 63 62 64 63 63 63 63 66 66 67 68 67 69 70 70 70 71 71 72 72 72 73 73 72 72 71 71 69 70 68 71 73 74 73 73 74 76 75 76 76 77 78 77 76 75 78 78 78 78 78 78 78 78 76 78 76 74 76 75 74
18 18 18 22 22 23 27 19 27 20 13 29 31 32 36 33 32 45 47 47 47 49 50 51 54 54 55 55 55 56 56 57 60 61 61 61 61 61 61 62 62 63 62 63 67 66 68 67 67 68 69 69 69 70 70 71 72 72 72 72 73 72 70 69 69 70 70 71 72 73 73 74 73 73 74 73 76 76 77 77 77 77 77 77 77 76 78 77 78 76 77 77 76 77 76 76 76
15 14 16 18 20 21 29 27 18 17 19 30 31 32 36 40 40 45 46 46 47 49 50 51 51 53 54 54 55 56 57 57 58 59 61 61 61 60 62 61 61 62 64 64 65 64 65 66 66 65 67 67 68 67 69 70 71 70 71 71 72 72 71 70 70 71 71 70 69 70 71 72 72 74 75 76 76 75 76 76 77 77 77 77 77 77 78 78 78 77 76 75 76 78 77 76 76
15 18 14 15 21 30 27 27 27 28 26 28 30 30 29 40 44 47 47 47 48 48 49 50 50 51 52 54 54 55 56 57 57 58 60 62 61 60 59 60 60 61 62 62 62 62 62 63 66 65 66 67 68 68 69 70 70 70 70 71 72 72 72 71 71 71 69 69 69 69 69 70 71 72 73 74 74 74 74 74 74 74 74 75 76 76 76 77 78 77 75 74 74 78 77 76 74
14 15 16 17 19 19 24 23 24 25 26 29 30 27 30 38 48 48 48 48 48 49 49 50 50 50 51 52 53 55 56 56 57 58 59 60 62 60 59 60 59 60 61 61 60 61 61 62 63 64 66 66 66 66 68 70 69 70 71 71 71 71 71 70 70 70 70 70 70 70 69 69 71 71 72 72 73 74 74 74 73 75 74 75 77 76 76 77 77 77 77 76 76 77 77 75 76
16 15 15 14 16 21 21 23 20 23 26 29 30 27 30 36 48 48 47 48 48 48 48 49 49 49 51 51 52 54 55 56 57 57 58 59 62 63 60 60 60 60 60 60 60 60 60 61 61 63 64 64 64 66 68 69 70 70 70 70 70 70 70 70 69 69 70 69 69 70 70 71 69 71 72 70 72 72 73 74 73 74 76 75 77 78 75 76 76 76 76 75 76 77 77 76 76